Location: Bathurst
(33.4193°S, 149.5775°E)
Time: 00:20:19
(UTC+10:00)

Vanguard 1 Rocket - Visible Passes

Search period start: 23 June 2021 00:00
Search period end: 03 July 2021 00:00
Orbit: 651 x 4225 km, 34.3° (Epoch: 21 June)

Date Brightness Start Highest point End Pass type
(mag) Time Alt. Az. Time Alt. Az. Time Alt. Az.
23 Jun 11.6 05:07:50 10° NNW 05:30:14 38° NE 05:47:26 10° E visible
24 Jun 11.8 03:57:03 10° N 04:15:56 26° NE 04:32:37 10° E visible
24 Jun 11.0 06:21:55 10° NW 06:47:03 58° NNE 07:03:38 10° ESE visible
25 Jun 12.0 02:49:51 10° NNE 03:01:54 15° NE 03:13:41 10° ENE visible
25 Jun 11.3 05:08:41 10° NNW 05:32:31 46° NE 05:50:54 10° E visible
26 Jun 11.6 03:57:09 10° NNW 04:18:05 33° NE 04:36:45 10° E visible
26 Jun 10.9 06:23:36 10° NW 06:49:30 67° NNE 07:06:42 10° ESE visible
27 Jun 11.8 02:47:58 10° N 03:04:01 21° NE 03:19:58 10° E visible
27 Jun 11.1 05:09:57 10° NW 05:34:44 54° NNE 05:54:06 10° ESE visible
28 Jun 12.0 01:47:31 10° NE 01:50:24 10° NE 01:53:19 10° ENE visible
28 Jun 11.4 03:57:52 10° NNW 04:20:07 41° NE 04:40:21 10° E visible
28 Jun 10.7 06:25:34 10° NW 06:51:57 74° NNE 07:09:43 10° ESE visible
29 Jun 11.6 02:47:38 10° N 03:05:58 28° NE 03:24:40 10° E visible
29 Jun 10.9 05:11:34 10° NW 05:36:58 62° NNE 05:57:09 10° ESE visible
30 Jun 11.7 01:40:50 10° NNE 01:52:25 16° NE 02:04:49 10° E visible
30 Jun 11.2 03:59:03 10° NNW 04:22:06 48° NE 04:43:37 10° ESE visible
30 Jun 10.7 06:27:46 10° WNW 06:54:28 80° NNE 07:12:42 10° ESE visible
01 Jul 11.4 02:48:09 10° NNW 03:07:48 35° NE 03:28:34 10° E visible
01 Jul 10.8 05:13:29 10° NW 05:39:12 69° NNE 06:00:07 10° ESE visible
02 Jul 11.6 01:39:31 10° N 01:54:14 22° NE 02:10:47 10° E visible
02 Jul 11.0 04:00:37 10° NW 04:24:06 56° NE 04:46:40 10° ESE visible
02 Jul 10.6 06:30:11 10° WNW 06:57:03 86° NNE 07:15:40 10° E visible
